Regional Weather Roundup
Issued by NWS Columbia, SC

Home | Current Version | Previous Version | Text Only | Print | Product List | Glossary On
Versions: 1 2 3 4 5 6 7 8 9 10 11 12 13 14 15 16 17 18 19 20 21 22 23 24 25 26 27
000
ASUS42 KCAE 191210
RWRCAE
REGIONAL WEATHER ROUNDUP
NATIONAL WEATHER SERVICE COLUMBIA SC
800 AM EDT SAT APR 19 2014

NOTE: "FAIR" INDICATES FEW OR NO CLOUDS BELOW 12,000 FEET WITH NO
SIGNIFICANT WEATHER AND/OR OBSTRUCTIONS TO VISIBILITY.

NOT ALL STATIONS ARE QUALITY CONTROLLED BY THE NATIONAL
WEATHER SERVICE. USE DATA WITH CAUTION...ESPECIALLY
DEWPOINT OBSERVATIONS.

SCZ001>056-GAZ040-063>065-077-191300-
...UPSTATE SOUTH CAROLINA...

CITY           SKY/WX    TMP DP  RH WIND       PRES   REMARKS
ANDERSON       CLOUDY    51  49  92 NE13      30.10R
6HR MIN TEMP:  49; 6HR MAX TEMP:  51; 6HR PCP:  0.02;

LIBERTY        DRIZZLE   51  30  44 MISG      30.11S
6HR MIN TEMP:  48; 6HR MAX TEMP:  57;

SPARTANBURG    DRIZZLE   50  50 100 N12       30.13R
CLEMSON        LGT RAIN  53  49  86 NE9       30.13R FOG
6HR MIN TEMP:  52; 6HR MAX TEMP:  54; 6HR PCP:  0.02;

GREENVILLE     LGT RAIN  50  47  89 NE14      30.13R FOG
6HR MIN TEMP:  48; 6HR MAX TEMP:  50; 6HR PCP:  0.07;

GREENWOOD      LGT RAIN  51  48  89 NE14G22   30.10R FOG
6HR MIN TEMP:  49; 6HR MAX TEMP:  50; 6HR PCP:  0.12;

GREER          LGT RAIN  49  47  93 N14       30.12R FOG
6HR MIN TEMP:  48; 6HR MAX TEMP:  49; 6HR PCP:  0.08;

ROCK HILL      LGT RAIN  48  47  96 NE12      30.12R FOG
6HR MIN TEMP:  48; 6HR MAX TEMP:  49; 6HR PCP:  0.51;

CHESTER        LGT SNOW N/A N/A N/A N14G21    30.11S
LAURENS        DRIZZLE   50 N/A N/A NE13G20   30.11R


...CENTRAL SOUTH CAROLINA...

CITY           SKY/WX    TMP DP  RH WIND       PRES   REMARKS
COLUMBIA APT   LGT RAIN  53  51  93 N10       30.04R FOG
6HR MIN TEMP:  53; 6HR MAX TEMP:  53; 6HR PCP:  0.24;

COLUMBIA OWENS CLOUDY    53  49  86 VRB7      30.04S
6HR MIN TEMP:  52; 6HR MAX TEMP:  53; 6HR PCP:  0.25;

DARLINGTON     CLOUDY    52  48  87 NE13      30.06S
6HR MIN TEMP:  52; 6HR MAX TEMP:  54; 6HR PCP:  1.04;

FLORENCE       LGT RAIN  53  51  93 NE9       30.03R FOG
6HR MIN TEMP:  53; 6HR MAX TEMP:  55; 6HR PCP:  0.93;

MCENTIRE ANGB  LGT RAIN  52  52 100 NE10      30.03S
6HR MIN TEMP:  51; 6HR MAX TEMP:  52; 6HR PCP:  0.26;

ORANGEBURG     CLOUDY    54  51  90 NE12G21   30.00S
6HR MIN TEMP:  53; 6HR MAX TEMP:  54; 6HR PCP:  0.09;

SUMTER SHAW    LGT RAIN  53  52  96 N14       30.01S
6HR MIN TEMP:  52; 6HR MAX TEMP:  53; 6HR PCP:  0.32;

NEWBERRY       LGT RAIN  52  52 100 NE17G26   30.11R
AIKEN          LGT RAIN  52  52 100 NE15G21   30.05S
BARNWELL       CLOUDY    54  52  94 NE12G17   30.00S
MANNING        CLOUDY    55 N/A N/A N6        30.00R
CAMDEN         RAIN      50  50 100 N9G17     30.06R VSB 1
LANCASTER      LGT RAIN  50  50 100 N9        30.09S
WINNSBORO      DRIZZLE   50  50 100 N9G18     30.05S


...EASTERN AND COASTAL SOUTH CAROLINA...

CITY           SKY/WX    TMP DP  RH WIND       PRES   REMARKS
MYRTLE BEACH   CLOUDY    57  54  88 NE15      29.99R FOG
N MYRTLE BCH   LGT RAIN  57  55  93 NE16      29.99R
6HR MIN TEMP:  54; 6HR MAX TEMP:  57; 6HR PCP:  0.28;

CONWAY         CLOUDY    55  55 100 NE13      30.01R
MARION         CLOUDY    52  50  93 NE10      30.03R
HARTSVILLE     CLOUDY    54  54 100 N9        30.05S
FLORENCE       LGT RAIN  53  51  93 NE9       30.03R FOG
6HR MIN TEMP:  53; 6HR MAX TEMP:  55; 6HR PCP:  0.93;

DARLINGTON     CLOUDY    52  48  87 NE13      30.06S
6HR MIN TEMP:  52; 6HR MAX TEMP:  54; 6HR PCP:  1.04;

CHARLESTON APT DRIZZLE   59  56  89 N8        29.96R FOG
6HR MIN TEMP:  59; 6HR MAX TEMP:  61; 6HR PCP:  0.33;

MOUNT PLEASANT CLOUDY   N/A N/A N/A N6        29.94R FOG
WALTERBORO     DRIZZLE   54 N/A N/A N5        29.97S
BEAUFORT       CLOUDY    58  56  93 NE13      29.94S
6HR MIN TEMP:  58; 6HR MAX TEMP:  60; 6HR PCP:  0.03;



...EASTERN GEORGIA...

CITY           SKY/WX    TMP DP  RH WIND       PRES   REMARKS
AUGUSTA BUSH F LGT RAIN  53  50  89 NE13      30.02R FOG
6HR MIN TEMP:  53; 6HR MAX TEMP:  53; 6HR PCP:  0.15;

AUGUSTA DANIEL CLOUDY    53  51  93 N13G26    30.02R
6HR MIN TEMP:  52; 6HR MAX TEMP:  53; 6HR PCP:  0.14;

THOMSON        CLOUDY    51  51 100 NE12      30.08S
6HR MIN TEMP:  50; 6HR MAX TEMP:  51;

WASHINGTON     DRIZZLE   52 N/A N/A NE7G16    30.06R
CLAXTON        CLOUDY   N/A N/A N/A NE9       29.96R
SYLVANIA       CLOUDY    55  53  91 NE9G16    29.98R FOG
6HR MIN TEMP:  55; 6HR MAX TEMP:  57;

STATESBORO     DRIZZLE   54  54 100 NE10      29.97R
6HR MIN TEMP:  54; 6HR MAX TEMP:  55;

SAVANNAH       DRIZZLE   58  56  93 N10       29.94R FOG
6HR MIN TEMP:  58; 6HR MAX TEMP:  61; 6HR PCP:  0.01;



...SOUTHERN NORTH CAROLINA...

CITY           SKY/WX    TMP DP  RH WIND       PRES   REMARKS
CHARLOTTE      LGT RAIN  48  47  96 N10       30.14R FOG
6HR MIN TEMP:  47; 6HR MAX TEMP:  48; 6HR PCP:  0.53;

MONROE         RAIN      49  47  93 N15       30.09F FOG
6HR MIN TEMP:  49; 6HR MAX TEMP:  50; 6HR PCP:  0.79;

WADESBORO      RAIN      51  50  97 N8        30.09S
6HR MIN TEMP:  50; 6HR MAX TEMP:  51; 6HR PCP:  0.66;

ROCKINGHAM     DRIZZLE   51  51  98 N9        30.06S
6HR MIN TEMP:  50; 6HR MAX TEMP:  51; 6HR PCP:  0.50;

RUTHERFORDTON  DRIZZLE   47  45  94 N6        30.17R
6HR MIN TEMP:  47; 6HR MAX TEMP:  48; 6HR PCP:  0.25;

ASHEVILLE      LGT RAIN  48  46  93 N8        30.17R
6HR MIN TEMP:  46; 6HR MAX TEMP:  48; 6HR PCP:  0.11;


$$



USA.gov is the U.S. government's official web portal to all federal, state and local government web resources and services.